OpenBCM V1.07b12 (Linux)

Packet Radio Mailbox

DB0FHN

[JN59NK Nuernberg]

 Login: GUEST





  
I6KZR  > KEPLER   23.02.03 00:20l 1425 Lines 38755 Bytes #999 (0) @ WW
BID : 25183_IK6WID
Read: DB0FHN GUEST
Subj: Old Istantrak Keplerians #052
Path: DB0FHN<DB0RGB<OK0PPL<RZ6HXA<SP7MGD<ON0BEL<IK6PYS<IK6PYS<I6ZLO<IK6WID
Sent: 030222/2201Z @:IK6WID.#AP.IMAR.ITA.EU #:25183 [MONTE URANO]  FBB7.00i
From: I6KZR@IK6WID.#AP.IMAR.ITA.EU
To  : KEPLER@WW


Satellite: OSCAR 7
Catalog number: 07530
Epoch time:      103051.68685736
Element set:     174 
Inclination:      101.7612 deg
RA of node:        99.4538 deg
Eccentricity:    0.0012274
Arg of perigee:    73.9399 deg
Mean anomaly:     286.3023 deg
Mean motion:   12.53564472 rev/day
Decay rate:   -2.9000E-007 rev/day^2
Epoch rev:           29345
Checksum:              317

Satellite: GOES 2
Catalog number: 10061
Epoch time:      103041.64344854
Element set:     84 
Inclination:       14.1321 deg
RA of node:        13.4869 deg
Eccentricity:    0.0012973
Arg of perigee:   199.7553 deg
Mean anomaly:     160.2330 deg
Mean motion:    0.99401033 rev/day
Decay rate:   -1.4600E-006 rev/day^2
Epoch rev:            3875
Checksum:              265

Satellite: GOES 3
Catalog number: 10953
Epoch time:      103050.93086062
Element set:     928 
Inclination:       13.4108 deg
RA of node:        17.2208 deg
Eccentricity:    0.0005565
Arg of perigee:   342.3571 deg
Mean anomaly:      17.6588 deg
Mean motion:    1.00279258 rev/day
Decay rate:   -1.0100E-006 rev/day^2
Epoch rev:            4351
Checksum:              372

Satellite: GOES 6
Catalog number: 14050
Epoch time:      103051.04211103
Element set:     426 
Inclination:       10.4065 deg
RA of node:        35.5425 deg
Eccentricity:    0.0004290
Arg of perigee:   343.7087 deg
Mean anomaly:      16.3064 deg
Mean motion:    1.00303364 rev/day
Decay rate:    3.4000E-007 rev/day^2
Epoch rev:           13065
Checksum:              214

Satellite: OSCAR 10
Catalog number: 14129
Epoch time:      103051.35064092
Element set:     918 
Inclination:       25.9612 deg
RA of node:       163.9843 deg
Eccentricity:    0.6025988
Arg of perigee:   329.3281 deg
Mean anomaly:       6.3071 deg
Mean motion:    2.05868966 rev/day
Decay rate:   -2.6099E-006 rev/day^2
Epoch rev:           12010
Checksum:              307

Satellite: OSCAR 11 (UoSA
Catalog number: 14781
Epoch time:     Element set:     76 
Inclination:       98.1188 deg
RA of node:        26.4686 deg
Eccentricity:    0.0008748
Arg of perigee:   195.5543 deg
Mean anomaly:     164.5399 deg
Mean motion:   14.78011020 rev/day
Decay rate:    1.6210E-005 rev/day^2
Epoch rev:            1667
Checksum:              424

Satellite: NOAA 10
Catalog number: 16969
Epoch time:      103052.07245614
Element set:     669 
Inclination:       98.7300 deg
RA of node:        46.1770 deg
Eccentricity:    0.0013450
Arg of perigee:    80.1558 deg
Mean anomaly:     280.1140 deg
Mean motion:   14.27066054 rev/day
Decay rate:    1.9700E-006 rev/day^2
Epoch rev:           85426
Checksum:              291

Satellite: GOES 7
Catalog number: 17561
Epoch time:      103048.62060979
Element set:     855 
Inclination:        7.5984 deg
RA of node:        55.5542 deg
Eccentricity:    0.0005433
Arg of perigee:   262.3589 deg
Mean anomaly:     233.9782 deg
Mean motion:    1.00252868 rev/day
Decay rate:    4.5999E-007 rev/day^2
Epoch rev:            4173
Checksum:              341

Satellite: COSMOS 1861
Catalog number: 18129
Epoch time:      103052.20765412
Element set:     201 
Inclination:       82.9274 deg
RA of node:       144.6096 deg
Eccentricity:    0.0010310
Arg of perigee:   215.8374 deg
Mean anomaly:     14Mean motion:   13.72701219 rev/day
Decay rate:    6.1999E-007 rev/day^2
Epoch rev:           78487
Checksum:              317

Satellite: EUTELSAT 1-F4 
Catalog number: 18351
Epoch time:      103049.95697038
Element set:     41 
Inclination:        7.1980 deg
RA of node:        58.6633 deg
Eccentricity:    0.0006904
Arg of perigee:   200.6408 deg
Mean anomaly:     159.5077 deg
Mean motion:    0.98687620 rev/day
Decay rate:   -8.2000E-007 rev/day^2
Epoch rev:            4268
Checksum:              425

Satellite: NOAA 11
Catalog number: 19531
Epoch time:      103052.12889024
Element set:     507 
Inclination:       98.90RA of node:       133.5028 deg
Eccentricity:    0.0011564
Arg of perigee:   191.5064 deg
Mean anomaly:     168.5848 deg
Mean motion:   14.14539596 rev/day
Decay rate:    2.1700E-006 rev/day^2
Epoch rev:           74316
Checksum:              301

Satellite: ASTRA 1A
Catalog number: 19688
Epoch time:      103050.91281701
Element set:     578 
Inclination:        1.3915 deg
RA of node:        94.7917 deg
Eccentricity:    0.0004580
Arg of perigee:   223.8852 deg
Mean anomaly:     164.5435 deg
Mean motion:    1.00272180 rev/day
Decay rate:    2.9000E-007 rev/day^2
Epoch rev:            3221
Checksum:              277

Satellite: OSCAR 14 (UOCatalog number: 20437
Epoch time:      103052.15530833
Element set:     169 
Inclination:       98.2731 deg
RA of node:        95.6459 deg
Eccentricity:    0.0010229
Arg of perigee:   190.4525 deg
Mean anomaly:     169.6441 deg
Mean motion:   14.31239489 rev/day
Decay rate:    1.6300E-006 rev/day^2
Epoch rev:           68286
Checksum:              315

Satellite: OSCAR 15 (UOSA
Catalog number: 20438
Epoch time:      103051.89693266
Element set:     780 
Inclination:       98.2478 deg
RA of node:        84.5098 deg
Eccentricity:    0.0009121
Arg of perigee:   203.4918 deg
Mean anomaly:     156.5846 deg
Mean motion:   14.30199449 rev/day
Decay rate:Epoch rev:           68249
Checksum:              360

Satellite: OSCAR 16 (PACS
Catalog number: 20439
Epoch time:      103051.68049958
Element set:     855 
Inclination:       98.3166 deg
RA of node:       106.8890 deg
Eccentricity:    0.0010428
Arg of perigee:   198.7637 deg
Mean anomaly:     161.3167 deg
Mean motion:   14.31473758 rev/day
Decay rate:    2.1299E-006 rev/day^2
Epoch rev:           68283
Checksum:              354

Satellite: OSCAR 17 (DOVE
Catalog number: 20440
Epoch time:      103051.66900634
Element set:     737 
Inclination:       98.3373 deg
RA of node:       110.7766 deg
Eccentricity:    0.0010408
Arg of perigee:   197.8408 deg
Mean anomaly:     162.2407 deg
Mean motion:   14.31751744 rev/day
Decay rate:    2.2700E-006 rev/day^2
Epoch rev:           68290
Checksum:              298

Satellite: OSCAR 18 (WEBE
Catalog number: 20441
Epoch time:      103052.56980371
Element set:     17 
Inclination:       98.3330 deg
RA of node:       110.8500 deg
Eccentricity:    0.0011183
Arg of perigee:   195.8955 deg
Mean anomaly:     164.1879 deg
Mean motion:   14.31555572 rev/day
Decay rate:    1.8900E-006 rev/day^2
Epoch rev:           68301
Checksum:              298

Satellite: OSCAR 19 (LUSA
Catalog number: 20442
Epoch time:      103052.19845169
Element set:     968 
Inclination:       98.3446 deg
RA of node:       113.5221 deg
Eccentricity:    0.0011458
Arg of perigee:   196.3524 deg
Mean anomaly:     163.7287 deg
Mean motion:   14.31718661 rev/day
Decay rate:    1.9599E-006 rev/day^2
Epoch rev:           68301
Checksum:              333

Satellite: JAS 1B (FUJI 2
Catalog number: 20480
Epoch time:      103051.88447958
Element set:     479 
Inclination:       99.0472 deg
RA of node:        14.1918 deg
Eccentricity:    0.0540777
Arg of perigee:   358.6365 deg
Mean anomaly:       1.3227 deg
Mean motion:   12.83329931 rev/day
Decay rate:   -4.4000E-007 rev/day^2
Epoch rev:           61081
Checksum:              404

Satellite: HST
Catalog number: 20580
Epoch time:      103052.15981696
Element set:     335 
Inclination:       28.4695 deg
RA of node:        21.2469 deg
Eccentricity:    0.0003885
Arg of perigee:   291.8337 deg
Mean anomaly:     180.4333 deg
Mean motion:   14.97833718 rev/day
Decay rate:    1.2610E-005 rev/day^2
Epoch rev:           50302
Checksum:              304

Satellite: EUTELSAT 2-F1
Catalog number: 20777
Epoch time:      103051.82099396
Element set:     35 
Inclination:        3.5072 deg
RA of node:        84.5457 deg
Eccentricity:    0.0002170
Arg of perigee:   310.2438 deg
Mean anomaly:  Mean motion:    1.00270558 rev/day
Decay rate:   -1.0300E-006 rev/day^2
Epoch rev:            2612
Checksum:              254

Satellite: FENGYUN 1B
Catalog number: 20788
Epoch time:      103052.53082076
Element set:     887 
Inclination:       99.0264 deg
RA of node:        34.6816 deg
Eccentricity:    0.0015456
Arg of perigee:   219.9094 deg
Mean anomaly:     140.0936 deg
Mean motion:   14.02135082 rev/day
Decay rate:   -1.3000E-007 rev/day^2
Epoch rev:           63795
Checksum:              302

Satellite: EUTELSAT 2-F2
Catalog number: 21056
Epoch time:      103046.68872131
Element set:     618 
Inclination:        2.724RA of node:        87.9532 deg
Eccentricity:    0.0003121
Arg of perigee:   260.7722 deg
Mean anomaly:      93.0131 deg
Mean motion:    1.00277947 rev/day
Decay rate:    1.2100E-006 rev/day^2
Epoch rev:            3184
Checksum:              367

Satellite: INFORMATOR 1
Catalog number: 21087
Epoch time:      103052.17841294
Element set:     600 
Inclination:       82.9444 deg
RA of node:       315.4757 deg
Eccentricity:    0.0033538
Arg of perigee:   243.1268 deg
Mean anomaly:     116.6464 deg
Mean motion:   13.74926800 rev/day
Decay rate:    8.1000E-007 rev/day^2
Epoch rev:           60524
Checksum:              291

Satellite: COSMCatalog number: 21089
Epoch time:      103051.87026102
Element set:     517 
Inclination:       82.9228 deg
RA of node:       179.6712 deg
Eccentricity:    0.0027730
Arg of perigee:   281.2699 deg
Mean anomaly:      78.5350 deg
Mean motion:   13.74404678 rev/day
Decay rate:    7.0999E-007 rev/day^2
Epoch rev:           60410
Checksum:              328

